Flag for Canada Weather past 2 weeks in Iqaluit, Nunavut, Canada

Now
5 °F

Low level haze.


Feels Like: -14 °F
Forecast: -6 / 12 °F
Wind: 17 mph from Northwest

Location: Iqaluit

Current Time: Apr 19, 2015 at 11:49:50 AM

Latest Report: Apr 19, 2015 at 11:00 AM


Visibility: 20 mi

Pressure: 30.03 "Hg

Humidity: 72%

Dew point: -2 °F

Location of IqaluitLocation

Historic Weather in Iqaluit — Graph

°F

Iqaluit temperature yesterday

Maximum temperature yesterday: 14 °F (at 3:00 PM)
Minimum temperature yesterday: 1 °F (at 4:00 AM)
Average temperature yesterday: 9 °F

Past Weeks' High & Low Weather Summary

 TemperatureHumidityPressure
High25 °F (Apr 13, 11:00 AM)93% (Apr 13, 5:00 AM)30.26 "Hg (Apr 13, 5:00 AM)
Low-20 °F (Apr 15, 5:00 AM)54% (Apr 15, 3:00 PM)29.02 "Hg (Apr 13, 11:52 AM)
Average1 °F71%29.73 "Hg
* Reported Apr 4 10:00 AM — Apr 19 10:00 AM, Iqaluit, Weather by CustomWeather, © 2015

Note: Actual official high and low records may vary slightly from our data, if they occured in-between our weather recording intervals... More about our weather records

Advertising

Iqaluit weather history for previous 24 hours

 ConditionsComfort  
Time TempWeatherWind HumidityBarometerVisibility
10:00 AM
Sun, Apr 19
7 °FLight snow. Scattered clouds.25 mph72%30.01 "Hg8 mi
9:00 AM9 °FLight snow. Partly sunny.26 mph72%29.97 "Hg6 mi
8:00 AM9 °FLight snow. Partly sunny.23 mph72%29.96 "Hg5 mi
7:00 AM10 °FLight snow. Partly sunny.24 mph79%29.95 "Hg5 mi
6:00 AM12 °FLight snow. Partly sunny.20 mph79%29.92 "Hg8 mi
5:00 AM12 °FLight snow. Mostly cloudy.6 mph79%29.91 "Hg6 mi
4:00 AM12 °FLight snow. Overcast.2 mph85%29.90 "Hg10 mi
3:00 AM12 °FLight snow. Overcast.No wind85%29.89 "Hg10 mi
2:00 AM12 °FLight snow. Overcast.3 mph85%29.89 "Hg15 mi
1:00 AM12 °FLight snow. Overcast.2 mph85%29.88 "Hg15 mi
12:00 AM12 °FLight snow. Overcast.3 mph85%29.89 "Hg15 mi
11:00 PM
Sat, Apr 18
12 °FLight snow. Overcast.2 mph85%29.89 "Hg15 mi
10:00 PM12 °FLight snow. Overcast.3 mph85%29.89 "Hg15 mi
9:00 PM12 °FLight snow. Overcast.2 mph85%29.90 "Hg15 mi
8:00 PM14 °FOvercast.2 mph79%29.90 "Hg15 mi
7:00 PM14 °FLight snow. Partly sunny.No wind79%29.90 "Hg12 mi
6:00 PM14 °FLight snow. Partly sunny.No wind79%29.90 "Hg10 mi
5:00 PM14 °FSnow flurries. Partly sunny.No wind79%29.90 "Hg10 mi
4:00 PM14 °FSnow flurries. Partly sunny.No wind73%29.89 "Hg12 mi
3:00 PM14 °FLight snow. Scattered clouds.2 mph73%29.89 "Hg10 mi
2:00 PM12 °FLight snow. Scattered clouds.2 mph73%29.89 "Hg8 mi
1:00 PM12 °FPartly sunny.3 mph79%29.89 "Hg6 mi
12:00 PM12 °FLight snow. Partly sunny.No wind73%29.90 "Hg5 mi
11:51 AM12 °FLight snow. Partly sunny.2 mph73%29.90 "Hg5 mi
11:00 AM12 °FLight snow. Partly sunny.2 mph73%29.90 "Hg8 mi
Weather by CustomWeather, © 2015

See weather overviewHow to use our weather pages